Simultaneous Nadir Overpasses (SNOs) Predictions

Prediction of SNOs between LANDSAT-8 and METOP-B Satellite Orbit:

Table of predicted SNOs for the next 14.0 days since TLE Epoch: 2/19/2022
Index Date (LANDSAT-8) Time (LANDSAT-8) Lat,Lon (LANDSAT-8) SZA (LANDSAT-8 ) Date (METOP-B) Time (METOP-B) Lat,Lon (METOP-B) SZA (METOP-B ) Distance(km) Time Diff (sec)
1 02/20/2022 03:42:45 81.17, 164.63 93.80 02/20/2022 03:42:34 81.17, 164.79 93.82 2.76 11
2 02/20/2022 04:32:11 -81.18, -27.47 86.18 02/20/2022 04:33:14 -81.18, -27.41 86.15 1.08 63
3 02/22/2022 23:16:59 81.15,-129.15 92.76 02/22/2022 23:16:57 81.15,-129.34 92.74 3.15 2
4 02/23/2022 00:06:25 -81.17, 38.78 87.21 02/23/2022 00:07:36 -81.18, 38.87 87.17 1.84 71
5 02/25/2022 18:01:46 -81.13, 129.31 88.31 02/25/2022 18:00:39 -81.13, 129.12 88.35 3.18 67
6 02/25/2022 18:51:11 81.16, -62.63 91.75 02/25/2022 18:51:17 81.16, -62.73 91.74 1.69 6
7 02/28/2022 13:35:59 -81.13,-164.21 89.34 02/28/2022 13:35:00 -81.14,-164.28 89.37 1.22 59
8 02/28/2022 14:25:24 81.16, 3.82 90.71 02/28/2022 14:25:38 81.16, 3.84 90.72 0.60 14
9 03/03/2022 09:10:11 -81.16, -97.44 90.35 03/03/2022 09:09:20 -81.15, -97.34 90.36 1.61 51



Historial Predications of SNOs between LANDSAT-8 and METOP-B
